Terminal Aerodrome Forecast
Issued by NWS

Current Version | Previous Version | Graphics & Text | Print | Product List | Glossary On
Versions: 1 2 3 4 5 6 7 8 9 10 11 12 13 14 15 16 17 18 19
000
FTUS41 KPBZ 271137
TAFMGW
TAF
KMGW 271137Z 2712/2812 VRB03KT P6SM SCT035
      TEMPO 2712/2713 5SM BR
     FM271400 02005KT P6SM BKN035
     FM280000 VRB03KT P6SM SCT050=

USA.gov is the U.S. government's official web portal to all federal, state and local government web resources and services.